This is the latest recevied weather packets stored in our database for station/object KG5WBN. If no packets are shown the sender has not sent any weather packets the latest 10 day(s).
| Time | Temp. | Humidity | Pressure | Rain* | Wind** | Luminosity | Snow |
|---|---|---|---|---|---|---|---|
| 1787839536 | 24.44° C | 99% | 1015.6 hPa | 16.76 mm | - | 13 W/m² | - |
| 1787839236 | 24.44° C | 99% | 1016.3 hPa | 4.83 mm | - | 8 W/m² | - |
| 1787838930 | 24.44° C | 99% | 1015.9 hPa | 4.32 mm | - | 7 W/m² | - |
| 1787838629 | 24.44° C | 99% | 1016.3 hPa | 4.83 mm | - | 7 W/m² | - |
| 1787838329 | 23.89° C | 99% | 1016.3 hPa | 6.1 mm | - | 6 W/m² | - |
| 1787838028 | 23.89° C | 99% | 1016.3 hPa | 4.83 mm | - | 5 W/m² | - |
| 1787837722 | 23.89° C | 99% | 1016.3 hPa | 4.83 mm | - | 5 W/m² | - |
| 1787837417 | 24.44° C | 99% | 1016.3 hPa | 4.83 mm | - | 4 W/m² | - |
| 1787837112 | 24.44° C | 99% | 1016.3 hPa | 4.83 mm | - | 3 W/m² | - |
| 1787836811 | 24.44° C | 99% | 1016.3 hPa | 4.83 mm | - | 3 W/m² | - |
| 1787836507 | 23.89° C | 99% | 1016.3 hPa | 4.83 mm | - | 1 W/m² | - |
| 1787836201 | 23.89° C | 99% | 1015.9 hPa | 4.83 mm | - | 0 W/m² | - |
| 1787835897 | 23.89° C | 99% | 1015.9 hPa | 4.83 mm | - | 0 W/m² | - |
| 1787835596 | 23.89° C | 99% | 1015.2 hPa | 3.05 mm | - | 0 W/m² | - |
| 1787835292 | 23.89° C | 99% | 1015.2 hPa | 3.05 mm | - | 0 W/m² | - |
| 1787834987 | 23.89° C | 99% | 1015.2 hPa | 7.11 mm | - | 0 W/m² | - |
| 1787834686 | 23.33° C | 99% | 1015.6 hPa | 10.92 mm | - | 0 W/m² | - |
| 1787834381 | 23.33° C | 99% | 1015.2 hPa | 38.35 mm | - | 0 W/m² | - |
| 1787834076 | 23.33° C | 99% | 1015.2 hPa | 42.67 mm | - | 0 W/m² | - |
| 1787833772 | 23.33° C | 99% | 1015.2 hPa | 38.35 mm | - | 0 W/m² | - |
| 1787833467 | 23.89° C | 99% | 1014.9 hPa | 10.92 mm | - | 0 W/m² | - |
| 1787833162 | 23.89° C | 99% | 1014.6 hPa | 8.89 mm | - | 0 W/m² | - |
| 1787832858 | 23.89° C | 99% | 1014.2 hPa | 6.1 mm | - | 0 W/m² | - |
| 1787832553 | 23.33° C | 99% | 1013.2 hPa | 7.87 mm | - | 0 W/m² | - |
| 1787832253 | 23.89° C | 95% | 1013.5 hPa | 29.46 mm | - | 0 W/m² | - |
* Rain latest hour (hover to see other rain measurements)
** Current wind speed in m/s (hover to see current wind gust speed)